CZ-6A DEB, 61833

Orbit data source: Space-Track

CZ-6A DEB, 61833 is space debris in LEO originally from a launch on Tue, 06 Aug 2024 UTC launched from the Taiyaun Space Center, China (TSC). Debris objects in space refer to the collection of defunct objects orbiting the Earth. Examples of debris include non-operational satellites, rocket bodies, and fragments generated from explosions, collisions, or faulty payload assembly.

Loading next visibility...
Identifier
61833, 2024-140ACZ
Orbit
LEO
Country
Flag of CNCN / PRC
Related business
Manufacturer
SAST
Mission
Spacecraft
Bus & Motor
Unknown
Mass
Unknown
Launch date (UTC)
2024-08-06 (1 year ago)
Launch vehicle
Unknown
Launch site
Taiyaun Space Center, China (TSC)
Object type
Payload
Rocket body
Debris
Shape & HBR
Unknown shape, 0.1 m
Radar Cross Section
Small (<0.1 m²)

Expand to show TLE details & history
Last TLE update: 21 hours ago

TLE from 21 hours ago
0 CZ-6A DEB
1 61833U 24140ACZ 25349.31863315  .00008390  00000-0  17627-2 0  9990
2 61833  88.8550 283.9914 0056985 211.7145 148.0630 14.58504336 65807
Epoch: 2025-12-15T07:38Z
TLE epoch observation values (Epoch: 2025-12-15T07:38:49.904Z)
Latitude
-0.00001°
Longitude
85.06455°
Altitude
735.406 km
Speed
7.469 km/s
True Right ascension
18h 55m 57s
True Declination
0° 00' 00"
Sunlit
Object was in daylight at epoch
Visualization orbit readout
Latitude
Unknown
Longitude
Unknown
Altitude
Unknown
Speed
Unknown
Apparent Right ascension
Unknown
Apparent Declination
Unknown
Sunlit
N/A
Visualization observer readout
Local Sidereal Time
03:22:57
Azimuth
Unknown
Elevation
Unknown
Doppler factor
Unknown
Orbital elements
Apogee altitude
735.21 km
Perigee altitude
654.599 km
Semi-major axis
7,073.041 km
Eccentricity
0.0057
Inclination
88.855°
RAAN
283.9914°
Arg. of periapsis
211.7145°
True anomaly
148.40635°
Mean anomaly
148.063°
Eccentric anomaly
148.23488°
Mean motion
3.64866 °/min
Orbital period
98.67 mins
BSTAR
0.0017627
Loading maneuver chart data...
Computing Atmospheric mass density...
Loading historical data...
Loading historical data...
Loading historical data...
Loading historical data...
Loading historical data...
Loading historical data...
Loading historical data...

Documentation

Showing up to 5 results
|